[[{"header":{"parameterUnit":"m.s-1","parameterCategory":1,"la1":30.2991,"la2":30.254,"lo1":-89.0895,"lo2":-89.0444,"dy":0.0017,"dx":0.0017,"nx":28,"ny":28,"refTime":"2023-09-17T21:00:00:Z","depth":0,"parameterNumber":2,"parameterNumberName":"U-component_of_WINDS"},"data":[0,0,0,0,0,0,0,0,0,0,0,0,0,0,0,0,0,0,0,0,0,0,0,0,0,0,0,0,0,0,0,0,0,0,0,0,0,0,0,0,0,0,0,0,0,0,0,0,0,0,0,0,0,0,0,0,0,0,-1.3634,-1.3633,0,-1.3604,-1.3604,-1.3603,-1.352,-1.3518,-1.3517,-1.3515,-1.3489,-1.349,-1.3491,0,0,0,0,0,0,0,0,0,0,0,0,0,-1.3622,-1.3623,-1.3634,-1.3633,-1.3633,-1.3604,-1.3604,-1.3603,-1.3521,-1.3518,-1.3516,-1.3514,-1.3488,-1.349,-1.3491,0,0,0,0,0,0,0,0,0,0,0,0,0,-1.3613,-1.3623,-1.3634,-1.3588,-1.3584,-1.3604,-1.3604,-1.3603,-1.3521,-1.3518,-1.3516,-1.3513,-1.3488,-1.3489,-1.3491,-1.3555,0,0,-1.3495,-1.3496,0,0,0,0,0,0,0,0,-1.3614,-1.3614,-1.3595,-1.3591,-1.3586,-1.3563,-1.359,-1.3587,-1.3522,-1.3545,-1.3515,-1.3512,-1.3516,-1.3515,-1.3515,-1.3553,-1.3552,-1.3496,-1.3497,-1.3497,-1.3498,0,0,0,0,0,0,0,-1.3615,-1.3615,-1.3622,-1.3595,-1.359,-1.357,-1.3566,-1.3589,-1.3546,-1.3543,-1.3537,-1.3534,-1.3513,-1.3514,-1.3514,-1.3552,-1.3496,-1.3497,-1.3498,-1.3498,-1.3642,-1.3644,0,0,0,0,0,0,-1.3621,-1.3616,-1.3623,-1.3621,-1.3594,-1.3573,-1.3568,-1.3573,-1.3546,-1.3539,-1.3536,-1.353,-1.3513,-1.3513,-1.3513,-1.3586,-1.3497,-1.3499,-1.3499,-1.3639,-1.3642,-1.3645,0,0,0,0,0,0,-1.3621,-1.3623,-1.3624,-1.3617,-1.3615,-1.3576,-1.3583,-1.3574,-1.3575,-1.3541,-1.3533,-1.3545,-1.3511,-1.3511,-1.3545,-1.3584,-1.3499,-1.3501,-1.3635,-1.364,-1.3644,-1.3733,0,0,0,0,0,0,-1.3621,-1.3623,-1.3646,-1.3618,-1.3616,-1.3655,-1.3585,-1.3576,-1.3578,-1.3569,-1.3547,-1.3541,-1.3509,-1.3543,-1.3546,-1.3585,-1.3502,-1.3632,-1.3637,-1.3643,-1.3727,-1.374,-1.3752,0,0,0,0,0,-1.3621,-1.3673,-1.3648,-1.3649,-1.3644,-1.3658,-1.3657,-1.3618,-1.3581,-1.3604,-1.3582,-1.3542,-1.3579,-1.3547,-1.355,-1.359,-1.3629,-1.3636,-1.3642,-1.3721,-1.3738,-1.3751,0,0,0,0,0,0,-1.3708,-1.3669,-1.364,-1.3684,-1.3675,-1.3644,-1.3672,-1.3636,-1.3638,-1.3631,-1.3583,-1.3579,-1.362,-1.3608,-1.3573,-1.365,-1.3598,-1.3605,-1.3657,-1.3672,-1.3684,-1.3687,-1.3503,0,0,0,0,0,-1.3732,-1.3746,-1.3711,-1.3753,-1.375,-1.3712,-1.3717,-1.3687,-1.3676,-1.3673,-1.3653,-1.3645,-1.3655,-1.3663,-1.367,-1.3725,-1.3719,-1.3753,-1.3766,-1.3776,-1.3784,-1.3812,-1.3827,-1.3667,-1.3667,-1.3667,0,0,-1.3783,-1.3763,-1.3774,-1.377,-1.376,-1.3776,-1.3709,-1.3729,-1.3741,-1.3676,-1.3706,-1.3692,-1.368,-1.3725,-1.3744,-1.3716,-1.3827,-1.3785,-1.3793,-1.3795,-1.3821,-1.3836,-1.385,-1.3671,-1.3671,-1.367,0,0,-1.3883,-1.3869,-1.3902,-1.3893,-1.3877,-1.3852,-1.386,-1.3835,-1.3822,-1.3852,-1.3803,-1.3818,-1.3836,-1.3829,-1.3829,-1.3927,-1.389,-1.3931,-1.3997,-1.4026,-1.4038,-1.4049,-1.4085,-1.4099,-1.3938,-1.3939,-1.3939,0,-1.3947,-1.3969,-1.3925,-1.3948,-1.3948,-1.3888,-1.3923,-1.3916,-1.3905,-1.3907,-1.3876,-1.3898,-1.3886,-1.3929,-1.3953,-1.3954,-1.3963,-1.3934,-1.404,-1.405,-1.406,-1.4094,-1.4108,-1.3944,-1.3943,-1.3943,-1.3942,0,-1.405,-1.4066,-1.4095,-1.4084,-1.4087,-1.4117,-1.4078,-1.4087,-1.4058,-1.4036,-1.4068,-1.4051,-1.4054,-1.4062,-1.4034,-1.4102,-1.4085,-1.4048,-1.3994,-1.4081,-1.4112,-1.4125,-1.3951,-1.3949,-1.3948,-1.3946,0,0,-1.4204,-1.4168,-1.4179,-1.4174,-1.4153,-1.4165,-1.4192,-1.4194,-1.4203,-1.4197,-1.422,-1.4236,-1.4202,-1.4201,-1.4172,-1.4197,-1.4278,-1.4157,-1.4156,-1.4181,-1.4352,-1.4381,-1.4396,-1.4253,-1.4255,-1.4257,-1.4353,0,-1.4299,-1.4341,-1.4302,-1.4353,-1.4367,-1.4311,-1.4335,-1.4326,-1.4306,-1.4317,-1.4296,-1.4309,-1.4262,-1.4261,-1.4284,-1.4263,-1.4312,-1.4255,-1.4274,-1.4276,-1.4279,-1.4412,-1.4442,-1.4534,-1.4365,-1.4367,-1.4369,0,-1.4415,-1.4413,-1.4465,-1.4441,-1.4446,-1.4467,-1.4466,-1.4477,-1.4466,-1.445,-1.445,-1.4414,-1.444,-1.4387,-1.4423,-1.4386,-1.4392,-1.4383,-1.4386,-1.4386,-1.4328,-1.4417,-1.4562,-1.4577,-1.4387,-1.4386,-1.4384,0,-1.4523,-1.4534,-1.4566,-1.4563,-1.4536,-1.4553,-1.4542,-1.4528,-1.4532,-1.4532,-1.4534,-1.4538,-1.454,-1.4544,-1.4511,-1.4475,-1.4552,-1.4496,-1.4541,-1.4542,-1.456,-1.4559,-1.4709,-1.4563,-1.4563,-1.4562,-1.4562,0,-1.4633,-1.4667,-1.4614,-1.4634,-1.4671,-1.4627,-1.4666,-1.465,-1.4638,-1.4655,-1.4607,-1.4624,-1.4579,-1.4592,-1.4566,-1.4601,-1.4602,-1.4591,-1.4584,-1.4596,-1.4598,-1.4599,-1.4592,-1.4566,-1.4565,-1.4564,-1.4564,0,-1.476,-1.4725,-1.4757,-1.4729,-1.4722,-1.4751,-1.4727,-1.4745,-1.4723,-1.4745,-1.4748,-1.4713,-1.4727,-1.4693,-1.4702,-1.4685,-1.4735,-1.4717,-1.4738,-1.4733,-1.478,-1.4777,-1.4936,-1.4956,-1.4798,-1.4799,-1.48,0,-1.4832,-1.4857,-1.4831,-1.4838,-1.483,-1.4843,-1.4846,-1.4804,-1.481,-1.48,-1.482,-1.4829,-1.4833,-1.4858,-1.4834,-1.4841,-1.4823,-1.4879,-1.4824,-1.4835,-1.4825,-1.4824,-1.4827,-1.4891,-1.4893,-1.4894,-1.4895,0,-1.4966,-1.4947,-1.4953,-1.4954,-1.4959,-1.4958,-1.4954,-1.4963,-1.4919,-1.4928,-1.494,-1.4944,-1.4952,-1.4962,-1.4964,-1.4955,-1.4919,-1.4913,-1.4924,-1.4936,-1.4948,-1.4943,-1.477,-1.4909,-1.4908,-1.4907,-1.4906,-1.4906,-1.5068,-1.5087,-1.5072,-1.5081,-1.5073,-1.507,-1.5086,-1.5065,-1.5074,-1.5077,-1.5052,-1.507,-1.5059,-1.5057,-1.5052,-1.5066,-1.5041,-1.5057,-1.5061,-1.5065,-1.5074,-1.4945,-1.5066,-1.5066,-1.5065,-1.5065,-1.5065,0,-1.5199,-1.5186,-1.5194,-1.5189,-1.5197,-1.516,-1.5154,-1.5163,-1.5179,-1.5171,-1.5177,-1.5192,-1.5201,-1.5179,-1.5185,-1.5201,-1.5185,-1.5205,-1.5203,-1.5202,-1.5095,-1.5085,-1.5218,-1.5218,-1.5218,-1.5218,-1.5218,-1.5218,-1.5268,-1.5299,-1.528,-1.5307,-1.5295,-1.531,-1.531,-1.5308,-1.5301,-1.532,-1.5327,-1.5312,-1.5299,-1.5304,-1.5312,-1.5305,-1.531,-1.5336,-1.5324,-1.5224,-1.521,-1.5195,-1.5186,-1.5337,-1.5338,-1.5429,-1.543,-1.5431]},{"header":{"parameterUnit":"m.s-1","parameterCategory":1,"la1":30.2991,"la2":30.254,"lo1":-89.0895,"lo2":-89.0444,"dy":0.0017,"dx":0.0017,"nx":28,"ny":28,"refTime":"2023-09-17T21:00:00:Z","depth":0,"parameterNumber":3,"parameterNumberName":"V-component_of_WINDS"},"data":[0,0,0,0,0,0,0,0,0,0,0,0,0,0,0,0,0,0,0,0,0,0,0,0,0,0,0,0,0,0,0,0,0,0,0,0,0,0,0,0,0,0,0,0,0,0,0,0,0,0,0,0,0,0,0,0,0,0,1.8045,1.8044,0,1.7952,1.7951,1.795,1.7909,1.791,1.791,1.791,1.7809,1.7806,1.7803,0,0,0,0,0,0,0,0,0,0,0,0,0,1.8182,1.818,1.8045,1.8044,1.8043,1.7953,1.7951,1.795,1.7909,1.791,1.791,1.791,1.781,1.7807,1.7803,0,0,0,0,0,0,0,0,0,0,0,0,0,1.8109,1.8179,1.8046,1.8012,1.8008,1.7953,1.7951,1.795,1.7909,1.791,1.791,1.791,1.7811,1.7807,1.7803,1.7772,0,0,1.779,1.7788,0,0,0,0,0,0,0,0,1.8113,1.8104,1.8018,1.8014,1.801,1.7943,1.7962,1.789,1.7909,1.7947,1.791,1.791,1.7853,1.7845,1.7827,1.7767,1.7763,1.7789,1.7787,1.7785,1.7784,0,0,0,0,0,0,0,1.8118,1.8108,1.8008,1.8017,1.8012,1.8,1.799,1.7948,1.7899,1.7943,1.794,1.793,1.7851,1.7831,1.7824,1.7761,1.7789,1.7786,1.7783,1.7781,1.7671,1.767,0,0,0,0,0,0,1.813,1.8112,1.8011,1.8006,1.8063,1.7997,1.7986,1.7964,1.79,1.789,1.793,1.7929,1.7838,1.7829,1.7821,1.778,1.7785,1.7781,1.7779,1.7671,1.7671,1.767,0,0,0,0,0,0,1.8133,1.8121,1.8015,1.8058,1.8044,1.7995,1.797,1.7962,1.7943,1.789,1.788,1.792,1.7838,1.7827,1.7785,1.7776,1.7779,1.7775,1.7672,1.7671,1.767,1.7699,0,0,0,0,0,0,1.8137,1.8122,1.8112,1.8058,1.8042,1.7982,1.797,1.796,1.7936,1.7933,1.7878,1.7868,1.7838,1.7791,1.778,1.777,1.7772,1.7672,1.7671,1.7671,1.7699,1.7699,1.77,0,0,0,0,0,1.8142,1.8122,1.8111,1.8099,1.8027,1.7982,1.7972,1.7939,1.7936,1.7923,1.7889,1.787,1.7779,1.7787,1.7775,1.7763,1.7672,1.7671,1.7671,1.7698,1.7699,1.77,0,0,0,0,0,0,1.8174,1.8115,1.8102,1.8065,1.8029,1.7975,1.7959,1.7941,1.7904,1.7902,1.7861,1.7848,1.781,1.7782,1.7792,1.773,1.7724,1.772,1.7749,1.775,1.775,1.7757,1.7768,0,0,0,0,0,1.8177,1.8147,1.8096,1.8068,1.8051,1.8008,1.7987,1.7965,1.7925,1.7909,1.7872,1.7833,1.7795,1.7771,1.7733,1.7695,1.7681,1.768,1.7681,1.7682,1.7679,1.7656,1.7655,1.7667,1.7667,1.7667,0,0,1.8183,1.8147,1.813,1.8074,1.8043,1.8011,1.7996,1.7962,1.7938,1.7903,1.7862,1.7833,1.7786,1.7746,1.7726,1.7722,1.7673,1.7681,1.7682,1.7679,1.7655,1.7654,1.7653,1.7667,1.7667,1.7667,0,0,1.8177,1.8147,1.812,1.809,1.8045,1.8017,1.801,1.7959,1.7939,1.7897,1.7871,1.784,1.7776,1.7744,1.7719,1.77,1.7681,1.7689,1.7693,1.7671,1.767,1.7668,1.7661,1.7659,1.7687,1.7687,1.7687,0,1.8189,1.8141,1.8108,1.8077,1.8052,1.8021,1.7993,1.7965,1.7909,1.7892,1.7888,1.7808,1.7774,1.7725,1.7721,1.7702,1.7692,1.7695,1.7673,1.7671,1.767,1.7662,1.7659,1.7688,1.7688,1.7688,1.7688,0,1.8158,1.8125,1.8109,1.8058,1.8031,1.8001,1.7962,1.7939,1.7918,1.789,1.7847,1.7805,1.7759,1.7746,1.7725,1.7693,1.7692,1.7681,1.7674,1.767,1.7662,1.7659,1.769,1.7689,1.7689,1.7689,0,0,1.8169,1.81,1.8095,1.8071,1.8019,1.7992,1.796,1.7916,1.7896,1.7859,1.783,1.7777,1.7767,1.7738,1.7713,1.7694,1.7681,1.7685,1.7683,1.7685,1.7642,1.765,1.7648,1.7668,1.7667,1.7667,1.7646,0,1.8155,1.8099,1.8068,1.8023,1.7992,1.7962,1.7934,1.7898,1.787,1.7838,1.7807,1.777,1.7759,1.7742,1.7722,1.7687,1.7672,1.7688,1.7639,1.7638,1.7651,1.7644,1.7652,1.7634,1.7643,1.7642,1.7642,0,1.8131,1.8096,1.8049,1.8,1.7986,1.7961,1.7918,1.7888,1.7846,1.7827,1.7796,1.7772,1.7735,1.7732,1.768,1.7692,1.767,1.765,1.7648,1.7641,1.7639,1.7636,1.7628,1.7625,1.7637,1.7637,1.7638,0,1.8143,1.8083,1.8048,1.8028,1.797,1.7954,1.7928,1.7887,1.7862,1.7824,1.7807,1.7765,1.7741,1.7708,1.7672,1.7673,1.7623,1.7617,1.7605,1.7606,1.7595,1.7596,1.7582,1.7582,1.7582,1.7582,1.7582,0,1.813,1.8102,1.8052,1.803,1.7997,1.7961,1.793,1.7902,1.7865,1.7835,1.7806,1.7779,1.7734,1.77,1.7671,1.7632,1.7622,1.7604,1.7597,1.7606,1.7608,1.759,1.759,1.7582,1.7582,1.7582,1.7582,0,1.8138,1.8103,1.8062,1.8011,1.7998,1.7976,1.7931,1.7907,1.7879,1.7842,1.7831,1.7785,1.7744,1.7705,1.7649,1.763,1.759,1.7581,1.7605,1.7601,1.759,1.7592,1.7564,1.7558,1.7563,1.7563,1.7563,0,1.8132,1.811,1.8057,1.8036,1.8012,1.7978,1.7954,1.7917,1.7892,1.7842,1.7824,1.7781,1.7745,1.768,1.7641,1.7598,1.7587,1.758,1.758,1.759,1.7585,1.7587,1.7584,1.7581,1.7581,1.7581,1.7581,0,1.8124,1.8108,1.8075,1.8035,1.8006,1.7973,1.7938,1.7922,1.7878,1.7851,1.781,1.7782,1.7726,1.7683,1.7636,1.7608,1.7586,1.7582,1.7576,1.7585,1.76,1.7591,1.7606,1.7582,1.7582,1.7582,1.7582,1.7582,1.8124,1.8103,1.8063,1.8026,1.7996,1.7964,1.7939,1.7908,1.7873,1.7826,1.7806,1.7764,1.7721,1.7656,1.7628,1.7593,1.7588,1.7581,1.7578,1.7577,1.7578,1.7607,1.7584,1.7584,1.7584,1.7584,1.7584,0,1.8114,1.8087,1.8053,1.8006,1.7977,1.7962,1.7922,1.7898,1.7862,1.7825,1.779,1.7742,1.77,1.7658,1.7613,1.7593,1.7582,1.7583,1.7583,1.7577,1.7586,1.7595,1.7592,1.7592,1.7592,1.7592,1.7592,1.7592,1.8106,1.8069,1.8048,1.7996,1.7968,1.7928,1.7907,1.7876,1.7846,1.7795,1.776,1.7734,1.7694,1.7646,1.7607,1.7595,1.7579,1.7582,1.7568,1.7577,1.7576,1.7576,1.7584,1.7579,1.7579,1.7561,1.7561,1.7561]}]]